Location: Lake Arresoe
(56.0000°N, 12.5000°E)
Time: 14:54:44
(UTC+02:00)

Resurs 1-4 Rocket - Pass Details

Date: 31 July 2021
Orbit: 799 x 814 km, 98.6° (Epoch: 27 September)

Event Time Altitude Azimuth Distance (km) Brightness Sun altitude
Rises 01:19:31 0° 25° (NNE) 3,349 6.6 -15.7°
Reaches altitude 10° 01:22:47 10° 45° (NE) 2,408 5.2 -15.7°
Maximum altitude 01:26:08 17° 85° (E) 1,966 4.2 -15.7°
Drops below altitude 10° 01:29:29 10° 124° (SE) 2,391 4.3 -15.7°
Enters shadow 01:30:11 - 130° (SE) 2,565 4.4 -15.7°
